Flag for Norway Weather past 2 weeks in Førde, Norway

Now
52 °F

Clear.


Feels Like: 51 °F
Forecast: 53 / 73 °F
Wind: 3 mph from North

Location: Forde / Bringeland

Current Time: Aug 29, 2014 at 2:12:35 AM

Latest Report: Aug 28, 2014 at 11:20 PM


Visibility: 10 mi

Pressure: 29.92 "Hg

Humidity: 94%

Dew point: 50 °F

Location of FørdeLocation

Historic Weather in Førde — Graph

°F

Førde temperature yesterday

Maximum temperature yesterday: 64 °F (at 1:50 PM)
Minimum temperature yesterday: 48 °F (at 5:50 AM)
Average temperature yesterday: 57 °F

Past Weeks' High & Low Weather Summary

 TemperatureHumidityPressure
High64 °F (Aug 14, 12:20 PM)100% (Aug 18, 5:50 AM)29.95 "Hg (Aug 18, 5:50 AM)
Low45 °F (Aug 22, 5:50 AM)49% (Aug 14, 11:20 AM)29.18 "Hg (Aug 18, 7:50 AM)
Average54 °F78%29.61 "Hg
* Reported Aug 13 11:20 PM — Aug 28 11:20 PM, Førde, Weather by CustomWeather, © 2014

Note: Actual official high and low records may vary slightly from our data, if they occured in-between our weather recording intervals... More about our weather records

Advertising

Førde weather history for previous 24 hours

 ConditionsComfort  
Time TempWeatherWind HumidityBarometerVisibility
11:20 PM
Aug 28
52 °FClear.3 mph94%29.92 "Hg10 mi
9:50 PM52 °FPassing clouds.6 mph94%29.92 "HgN/A
7:50 PM57 °FPassing clouds.7 mph77%29.92 "HgN/A
6:50 PM59 °FPassing clouds.8 mph77%29.92 "HgN/A
5:50 PM59 °FPassing clouds.2 mph77%29.92 "HgN/A
4:50 PM61 °FPassing clouds.7 mph72%29.92 "HgN/A
4:20 PM61 °FPassing clouds.7 mph77%29.92 "HgN/A
3:20 PM63 °FPassing clouds.10 mph68%29.92 "HgN/A
2:50 PM63 °FPassing clouds.N/A68%29.92 "HgN/A
2:20 PM64 °FPassing clouds.N/A60%29.92 "HgN/A
1:50 PM64 °FPassing clouds.8 mph60%29.92 "HgN/A
12:50 PM63 °FPassing clouds.6 mph59%29.92 "HgN/A
12:20 PM63 °FPassing clouds.6 mph64%29.92 "HgN/A
11:20 AM61 °FPassing clouds.3 mph63%29.92 "HgN/A
10:50 AM59 °FPassing clouds.3 mph63%29.92 "HgN/A
10:20 AM57 °FSunny.2 mph72%29.92 "Hg10 mi
9:50 AM57 °FSunny.No wind72%29.92 "Hg10 mi
9:20 AM54 °FSunny.2 mph77%29.92 "Hg10 mi
8:50 AM54 °FSunny.1 mph77%29.92 "Hg10 mi
8:20 AM52 °FSunny.No wind82%29.92 "Hg10 mi
7:50 AM50 °FSunny.No wind88%29.92 "Hg10 mi
7:20 AM50 °FPassing clouds.2 mph88%29.92 "HgN/A
6:50 AM48 °FPassing clouds.3 mph87%29.92 "HgN/A
6:20 AM48 °FClear.5 mph87%29.92 "Hg10 mi
5:50 AM48 °FClear.3 mph87%29.92 "Hg10 mi
Weather by CustomWeather, © 2014

See weather overviewHow to use our weather pages